#timestamp,LO_Frequency,Hit,StdDev 
1507924815.6,286047005.8,N
1507924835.4,286047006.2,N
1507924855.3,286047011.3,N
1507924875.1,286047012.7,N
1507924876.0,286047012.7,Y
1507924895.8,286047009.0,P
1507924915.7,286047008.6,P
1507924935.5,286047008.4,P
1507924955.3,286047010.0,Y
1507924975.2,286046999.8,P
1507924995.9,286047000.6,N
1507925015.7,286047002.2,N
1507925035.6,286046998.7,N
1507925055.4,286046995.1,N
1507925075.2,286047000.4,N
1507925095.1,286047002.0,N
1507925096.0,286047002.0,N
1507925115.8,286047002.9,N
1507925135.6,286047006.8,N
1507925155.5,286047008.5,N
1507925175.3,286047008.4,N
1507925195.1,286047006.8,N
1507925215.8,286047008.5,N
1507925235.7,286047006.3,N
1507925255.5,286047006.1,N
1507925275.3,286047004.9,N
1507925295.2,286047006.3,N
1507925315.9,286047008.4,N
1507925335.7,286047006.5,N
1507925355.6,286047006.7,N
1507925375.4,286047005.2,N
1507925395.2,286047006.0,N
1507925415.1,286047003.6,N
1507925416.0,286047003.6,N
1507925435.8,286047003.4,N
1507925455.6,286047001.8,N
1507925475.5,286047004.5,N
1507925495.3,286047004.1,N
1507925515.1,286046999.7,N
1507925535.8,286047005.6,N
1507925555.7,286047001.3,N
1507925575.5,286047002.0,N
1507925595.3,286046998.4,N
1507925615.2,286046999.0,N
1507925635.9,286047005.5,N
1507925655.7,286047001.8,N
1507925675.6,286046999.8,N
1507925695.4,286046998.9,N
1507925715.2,286046998.7,N
1507925735.1,286046996.9,N
1507925736.0,286046996.9,N
1507925755.8,286046996.9,N
1507925775.6,286047002.8,N
1507925795.5,286047001.1,N
1507925815.3,286046999.8,N
1507925835.1,286046999.2,N
1507925855.9,286046996.5,N
1507925875.7,286046998.6,N
1507925895.5,286046999.2,N
1507925915.4,286046995.4,N
1507925935.2,286046995.7,N
1507925955.0,286046997.8,N
1507925955.9,286046997.8,N
1507925975.8,286046992.4,N
1507925995.6,286046993.8,N
1507926015.4,286046992.1,N
1507926035.2,286046993.7,N
1507926055.1,286046991.7,N
1507926056.0,286046991.7,N
1507926075.8,286046992.0,N
1507926095.6,286046997.3,N
1507926115.5,286046993.5,N
1507926135.3,286046993.0,N
1507926155.1,286046993.0,N
1507926175.9,286046992.1,N
1507926195.7,286046991.4,N
1507926215.5,286046991.3,N
1507926235.4,286046987.5,Y
1507926255.2,286046989.6,P
1507926275.0,286046987.9,P
1507926275.9,286046987.9,P
1507926295.8,286046987.1,Y
1507926315.6,286046999.4,P
1507926335.4,286047002.7,N
1507926355.3,286047001.6,N
1507926375.1,286046999.9,N
1507926376.0,286046999.9,N
1507926395.8,286046998.8,N
1507926415.7,286046998.9,N
1507926435.5,286046999.1,N
1507926455.3,286047000.0,N
1507926475.2,286046999.8,N
1507926495.9,286047002.5,N
1507926515.7,286047002.2,N
1507926535.5,286047002.0,N
1507926555.4,286046999.7,N
1507926575.2,286047000.8,N
1507926595.0,286047000.0,N
1507926595.9,286047000.0,N
1507926615.8,286047002.7,N
1507926635.6,286047004.3,N
1507926655.4,286047005.0,N
1507926675.3,286047006.6,N
1507926695.1,286047010.0,Y
1507926715.8,286047006.1,P
1507926735.7,286047007.5,N
1507926755.5,286047010.7,P
1507926775.3,286047006.9,N
1507926795.2,286047004.6,N
1507926815.9,286047002.9,N
1507926835.7,286047007.1,N
1507926855.6,286047010.8,Y
1507926875.4,286047003.2,P
1507926895.2,286047003.2,N
1507926915.1,286047006.8,P
1507926916.0,286047006.8,Y
1507926935.8,286047001.8,P
1507926955.6,286047000.2,N
1507926975.5,286046995.6,N
1507926995.3,286047001.2,N
1507927015.1,286047000.3,N
1507927035.9,286047002.9,N
1507927055.7,286047001.4,N
1507927075.5,286047007.2,N
1507927095.3,286047005.5,N
1507927115.2,286047006.7,N
1507927135.0,286047008.7,N
1507927135.9,286047008.7,N
1507927155.8,286047012.3,Y
1507927175.6,286047007.3,P
1507927195.4,286047004.8,N
1507927215.2,286047005.0,P
1507927235.1,286047002.9,N
1507927236.0,286047002.9,N
1507927255.8,286047003.6,N
1507927275.6,286047003.3,N
1507927295.5,286047005.2,Y
1507927315.3,286046997.0,P
1507927335.1,286046999.4,N
1507927355.9,286046998.3,N
1507927375.7,286046999.4,N
1507927395.5,286046996.8,N
1507927415.4,286046994.9,N
1507927435.2,286046996.2,N
1507927455.0,286046996.3,N
1507927455.9,286046996.3,N
1507927475.8,286046993.3,N
1507927495.6,286046992.6,N
1507927515.4,286046993.3,N
1507927535.3,286046992.6,N
1507927555.1,286046991.8,N
1507927556.0,286046991.8,N
1507927575.8,286046993.1,N
1507927595.6,286046991.8,N
1507927615.5,286046994.4,N
1507927635.3,286046994.2,N
1507927655.1,286046994.3,N
1507927675.9,286046991.9,N
1507927695.7,286046994.5,N
1507927715.5,286046994.3,N
1507927735.4,286046993.3,N
1507927755.2,286046994.7,N
1507927775.0,286046990.4,Y
1507927775.9,286046990.4,P
1507927795.8,286046995.7,N
1507927815.6,286046992.1,P
1507927835.4,286046991.3,Y
1507927855.3,286046995.6,P
1507927875.1,286046995.2,P
1507927895.8,286046992.6,P
1507927915.7,286046994.3,Y
1507927935.5,286047000.6,P
1507927955.3,286046998.7,N
1507927975.2,286047000.3,N
1507927995.9,286047004.3,N
1507928015.7,286047005.3,N
1507928035.6,286047008.4,N
1507928055.4,286047003.1,N
1507928075.2,286047003.9,N
1507928095.1,286047003.2,N
1507928096.0,286047003.2,N
1507928115.8,286047004.8,N
1507928135.6,286047007.7,N
1507928155.5,286047009.3,N
1507928175.3,286047011.3,N
1507928195.1,286047011.4,N
1507928215.8,286047010.9,N
1507928235.7,286047015.1,Y
1507928255.5,286047010.8,P
1507928275.3,286047013.6,P
1507928295.2,286047010.2,N
1507928315.0,286047014.0,Y
1507928315.9,286047014.0,P
1507928335.7,286047002.3,N
1507928355.6,286047000.7,N
1507928375.4,286047000.9,N
1507928395.2,286047001.0,N
